Hamnavoe — VSTY7 — position and weather

sailwx.info

Track history (hours):
 
Tides and Currents Weather Stations Pressure Air Temp Water Temp Dewpoint Dewpoint Depression Visibility Wind Speed Wind Dir Waves Ship Positions

Hamnavoe

Operator: NorthLink Orkey & Shetland Ferries Ltd

Last reported at 2018-May-20 19:17 UTC. Time now 2018-May-20 21:16 UTC.
Position N 58°58' W 003°18'.

Length 112 m; draft 4.2 m.

Type: Ship. MMSI: 235449000.

Date/timePositionNaut miles runAvg speedWind from/ knotsBaromVisibWave heightAir tempDewpointWater temp
2018-May-20 19:17N 58°58' W 003°18'512.4
2018-May-20 18:54N 58°55' W 003°26'1910.1
2018-May-20 17:02N 58°37' W 003°32'516.4
2018-May-20 16:46N 58°41' W 003°31'818.3
2018-May-20 16:19N 58°49' W 003°29'916.6
2018-May-20 15:46N 58°57' W 003°19'1 1.1
2018-May-20 14:42N 58°58' W 003°18'311.8
2018-May-20 14:29N 58°56' W 003°14'611.5
2018-May-20 14:00N 58°50' W 003°11'4 7.6
2018-May-20 13:30N 58°46' W 003°11'914.1
2018-May-20 12:53N 58°51' W 003°25'611.2
2018-May-20 12:20N 58°57' W 003°19'1 0.9
2018-May-20 11:12N 58°58' W 003°18'514.2
2018-May-20 10:52N 58°55' W 003°26'14 7.8
2018-May-20 09:01N 58°41' W 003°31'119.5
2018-May-20 08:58N 58°42' W 003°30'1319.2
2018-May-20 08:18N 58°55' W 003°26'516.8
2018-May-20 08:00N 58°57' W 003°17'1 0.1
2018-May-19 19:18N 58°58' W 003°18'512.2
2018-May-19 18:55N 58°55' W 003°26'819.2
2018-May-19 18:30N 58°47' W 003°29'1112.8
2018-May-19 17:39N 58°37' W 003°32'0 0.0
2018-May-19 17:27N 58°37' W 003°32'4 7.4
2018-May-19 16:51N 58°41' W 003°31'818.6
2018-May-19 16:27N 58°48' W 003°29'716.8
2018-May-19 16:01N 58°55' W 003°25'4 1.9
2018-May-19 13:39N 58°58' W 003°18'913.3
2018-May-19 12:57N 58°50' W 003°28'9 5.2
2018-May-19 11:09N 58°41' W 003°31'418.8
2018-May-19 10:58N 58°45' W 003°30'1019.6
2018-May-19 10:26N 58°55' W 003°26'5 3.5
2018-May-19 08:57N 58°58' W 003°18'914.6
2018-May-19 08:19N 58°50' W 003°28'9 5.5
2018-May-19 06:39N 58°41' W 003°31'319.4
2018-May-19 06:29N 58°44' W 003°30'1118.8
2018-May-19 05:55N 58°55' W 003°26'5 0.5
2018-May-18 19:19N 58°58' W 003°18'514.4
2018-May-18 18:57N 58°55' W 003°26'18 9.9
2018-May-18 17:07N 58°37' W 003°32'519.2
2018-May-18 16:52N 58°41' W 003°33'819.1
2018-May-18 16:29N 58°49' W 003°29'1016.9
2018-May-18 15:53N 58°57' W 003°18'1 0.1
2018-May-18 09:06N 58°58' W 003°18'1 8.4
2018-May-18 09:00N 58°57' W 003°17'916.6
2018-May-18 08:28N 58°50' W 003°28'14 9.3
2018-May-18 07:00N 58°37' W 003°32'1417.5
2018-May-18 06:14N 58°50' W 003°29'519.7
2018-May-18 05:58N 58°55' W 003°26'5 0.5
2018-May-17 19:14N 58°58' W 003°18'513.2
2018-May-17 18:54N 58°55' W 003°25'15 7.3
2018-May-17 16:51N 58°41' W 003°31'818.9
2018-May-17 16:25N 58°49' W 003°29'917.3
2018-May-17 15:52N 58°57' W 003°20'1 0.2
2018-May-17 09:00N 58°58' W 003°18'2210.4
2018-May-17 06:52N 58°37' W 003°32'1819.4
2018-May-17 05:56N 58°54' W 003°26'5 0.5
2018-May-16 19:14N 58°58' W 003°18'514.2
2018-May-16 18:55N 58°55' W 003°26'13 6.2
2018-May-16 16:49N 58°42' W 003°31'718.6
2018-May-16 16:26N 58°49' W 003°29'917.7
2018-May-16 15:57N 58°57' W 003°19'1 0.2
2018-May-16 09:09N 58°58' W 003°18'16 6.1
2018-May-16 06:32N 58°43' W 003°30'119.8
2018-May-16 06:30N 58°44' W 003°30'1219.9
2018-May-16 05:54N 58°55' W 003°26'5 0.4
2018-May-15 19:42N 58°58' W 003°18'514.7
2018-May-15 19:20N 58°55' W 003°26'18 7.9
2018-May-15 17:04N 58°37' W 003°32'319.0
2018-May-15 16:55N 58°40' W 003°31'1817.6
2018-May-15 15:52N 58°57' W 003°19'1 0.1
2018-May-15 08:59N 58°57' W 003°18'21 9.2
2018-May-15 06:45N 58°38' W 003°31'619.3
2018-May-15 06:27N 58°44' W 003°29'1120.2
2018-May-15 05:55N 58°54' W 003°26'513.2
2018-May-15 05:30N 58°57' W 003°18'0 0.0
2018-May-14 19:14N 58°58' W 003°18'514.1
2018-May-14 18:55N 58°55' W 003°26'17 9.0
2018-May-14 16:58N 58°38' W 003°31'1018.9
2018-May-14 16:27N 58°48' W 003°29'818.6
2018-May-14 16:00N 58°56' W 003°25'4 0.6
2018-May-14 09:00N 58°57' W 003°18'914.5
2018-May-14 08:22N 58°50' W 003°29'14 9.1
2018-May-14 06:51N 58°37' W 003°32'716.8
2018-May-14 06:25N 58°44' W 003°29'1120.4
2018-May-14 05:53N 58°54' W 003°26'513.7
2018-May-14 05:29N 58°57' W 003°18'0 0.0
2018-May-13 19:29N 58°58' W 003°18'815.8
2018-May-13 19:00N 58°51' W 003°11'814.4
2018-May-13 18:28N 58°44' W 003°18'8 4.9
2018-May-13 16:52N 58°40' W 003°31'1120.0
2018-May-13 16:20N 58°50' W 003°28'817.6
2018-May-13 15:52N 58°57' W 003°19'1 0.3
2018-May-13 12:13N 58°58' W 003°18'914.9
2018-May-13 11:36N 58°50' W 003°28'920.1
2018-May-13 11:09N 58°41' W 003°29'5 3.2
2018-May-13 09:39N 58°37' W 003°32'7 8.8
2018-May-13 08:54N 58°43' W 003°30'1517.2
2018-May-13 08:01N 58°57' W 003°17'014.6
2018-May-13 08:00N 58°57' W 003°17'1 0.1
2018-May-12 19:21N 58°58' W 003°18'513.1
2018-May-12 18:59N 58°55' W 003°26'918.7
2018-May-12 18:29N 58°46' W 003°29'3 1.9
2018-May-12 16:47N 58°43' W 003°30'619.5
2018-May-12 16:30N 58°49' W 003°29'917.2
2018-May-12 15:57N 58°57' W 003°19'1 0.3
2018-May-12 12:17N 58°58' W 003°18'914.8
2018-May-12 11:39N 58°50' W 003°29'7 2.6
2018-May-12 08:57N 58°43' W 003°30'1518.0
2018-May-12 08:07N 58°57' W 003°18'1 0.1
2018-May-11 19:12N 58°58' W 003°18'19 8.4
2018-May-11 16:54N 58°39' W 003°31'1018.8
2018-May-11 16:22N 58°49' W 003°29'916.5
2018-May-11 15:49N 58°57' W 003°19'1 0.1
2018-May-11 09:12N 58°58' W 003°18'914.5
2018-May-11 08:33N 58°50' W 003°29'9 4.8
2018-May-11 06:40N 58°41' W 003°31'318.6
2018-May-11 06:30N 58°44' W 003°30'1019.3
2018-May-11 05:59N 58°54' W 003°27'6 0.5
2018-May-10 19:26N 58°58' W 003°18'  
Track history (hours):
 
Tides and Currents Weather Stations Pressure Air Temp Water Temp Dewpoint Dewpoint Depression Visibility Wind Speed Wind Dir Waves Ship Positions

Hamnavoe

Operator: NorthLink Orkey & Shetland Ferries Ltd

Last reported at 2018-May-20 19:17 UTC. Time now 2018-May-20 21:16 UTC.
Position N 58°58' W 003°18'.

Length 112 m; draft 4.2 m.

Type: Ship. MMSI: 235449000.

Date/timePositionNaut miles runAvg speedWind from/ knotsBaromVisibWave heightAir tempDewpointWater temp
2018-May-20 19:17N 58°58' W 003°18'512.4
2018-May-20 18:54N 58°55' W 003°26'1910.1
2018-May-20 17:02N 58°37' W 003°32'516.4
2018-May-20 16:46N 58°41' W 003°31'818.3
2018-May-20 16:19N 58°49' W 003°29'916.6
2018-May-20 15:46N 58°57' W 003°19'1 1.1
2018-May-20 14:42N 58°58' W 003°18'311.8
2018-May-20 14:29N 58°56' W 003°14'611.5
2018-May-20 14:00N 58°50' W 003°11'4 7.6
2018-May-20 13:30N 58°46' W 003°11'914.1
2018-May-20 12:53N 58°51' W 003°25'611.2
2018-May-20 12:20N 58°57' W 003°19'1 0.9
2018-May-20 11:12N 58°58' W 003°18'514.2
2018-May-20 10:52N 58°55' W 003°26'14 7.8
2018-May-20 09:01N 58°41' W 003°31'119.5
2018-May-20 08:58N 58°42' W 003°30'1319.2
2018-May-20 08:18N 58°55' W 003°26'516.8
2018-May-20 08:00N 58°57' W 003°17'1 0.1
2018-May-19 19:18N 58°58' W 003°18'512.2
2018-May-19 18:55N 58°55' W 003°26'819.2
2018-May-19 18:30N 58°47' W 003°29'1112.8
2018-May-19 17:39N 58°37' W 003°32'0 0.0
2018-May-19 17:27N 58°37' W 003°32'4 7.4
2018-May-19 16:51N 58°41' W 003°31'818.6
2018-May-19 16:27N 58°48' W 003°29'716.8
2018-May-19 16:01N 58°55' W 003°25'4 1.9
2018-May-19 13:39N 58°58' W 003°18'913.3
2018-May-19 12:57N 58°50' W 003°28'9 5.2
2018-May-19 11:09N 58°41' W 003°31'418.8
2018-May-19 10:58N 58°45' W 003°30'1019.6
2018-May-19 10:26N 58°55' W 003°26'5 3.5
2018-May-19 08:57N 58°58' W 003°18'914.6
2018-May-19 08:19N 58°50' W 003°28'9 5.5
2018-May-19 06:39N 58°41' W 003°31'319.4
2018-May-19 06:29N 58°44' W 003°30'1118.8
2018-May-19 05:55N 58°55' W 003°26'5 0.5
2018-May-18 19:19N 58°58' W 003°18'514.4
2018-May-18 18:57N 58°55' W 003°26'18 9.9
2018-May-18 17:07N 58°37' W 003°32'519.2
2018-May-18 16:52N 58°41' W 003°33'819.1
2018-May-18 16:29N 58°49' W 003°29'1016.9
2018-May-18 15:53N 58°57' W 003°18'1 0.1
2018-May-18 09:06N 58°58' W 003°18'1 8.4
2018-May-18 09:00N 58°57' W 003°17'916.6
2018-May-18 08:28N 58°50' W 003°28'14 9.3
2018-May-18 07:00N 58°37' W 003°32'1417.5
2018-May-18 06:14N 58°50' W 003°29'519.7
2018-May-18 05:58N 58°55' W 003°26'5 0.5
2018-May-17 19:14N 58°58' W 003°18'513.2
2018-May-17 18:54N 58°55' W 003°25'15 7.3
2018-May-17 16:51N 58°41' W 003°31'818.9
2018-May-17 16:25N 58°49' W 003°29'917.3
2018-May-17 15:52N 58°57' W 003°20'1 0.2
2018-May-17 09:00N 58°58' W 003°18'2210.4
2018-May-17 06:52N 58°37' W 003°32'1819.4
2018-May-17 05:56N 58°54' W 003°26'5 0.5
2018-May-16 19:14N 58°58' W 003°18'514.2
2018-May-16 18:55N 58°55' W 003°26'13 6.2
2018-May-16 16:49N 58°42' W 003°31'718.6
2018-May-16 16:26N 58°49' W 003°29'917.7
2018-May-16 15:57N 58°57' W 003°19'1 0.2
2018-May-16 09:09N 58°58' W 003°18'16 6.1
2018-May-16 06:32N 58°43' W 003°30'119.8
2018-May-16 06:30N 58°44' W 003°30'1219.9
2018-May-16 05:54N 58°55' W 003°26'5 0.4
2018-May-15 19:42N 58°58' W 003°18'514.7
2018-May-15 19:20N 58°55' W 003°26'18 7.9
2018-May-15 17:04N 58°37' W 003°32'319.0
2018-May-15 16:55N 58°40' W 003°31'1817.6
2018-May-15 15:52N 58°57' W 003°19'1 0.1
2018-May-15 08:59N 58°57' W 003°18'21 9.2
2018-May-15 06:45N 58°38' W 003°31'619.3
2018-May-15 06:27N 58°44' W 003°29'1120.2
2018-May-15 05:55N 58°54' W 003°26'513.2
2018-May-15 05:30N 58°57' W 003°18'0 0.0
2018-May-14 19:14N 58°58' W 003°18'514.1
2018-May-14 18:55N 58°55' W 003°26'17 9.0
2018-May-14 16:58N 58°38' W 003°31'1018.9
2018-May-14 16:27N 58°48' W 003°29'818.6
2018-May-14 16:00N 58°56' W 003°25'4 0.6
2018-May-14 09:00N 58°57' W 003°18'914.5
2018-May-14 08:22N 58°50' W 003°29'14 9.1
2018-May-14 06:51N 58°37' W 003°32'716.8
2018-May-14 06:25N 58°44' W 003°29'1120.4
2018-May-14 05:53N 58°54' W 003°26'513.7
2018-May-14 05:29N 58°57' W 003°18'0 0.0
2018-May-13 19:29N 58°58' W 003°18'815.8
2018-May-13 19:00N 58°51' W 003°11'814.4
2018-May-13 18:28N 58°44' W 003°18'8 4.9
2018-May-13 16:52N 58°40' W 003°31'1120.0
2018-May-13 16:20N 58°50' W 003°28'817.6
2018-May-13 15:52N 58°57' W 003°19'1 0.3
2018-May-13 12:13N 58°58' W 003°18'914.9
2018-May-13 11:36N 58°50' W 003°28'920.1
2018-May-13 11:09N 58°41' W 003°29'5 3.2
2018-May-13 09:39N 58°37' W 003°32'7 8.8
2018-May-13 08:54N 58°43' W 003°30'1517.2
2018-May-13 08:01N 58°57' W 003°17'014.6
2018-May-13 08:00N 58°57' W 003°17'1 0.1
2018-May-12 19:21N 58°58' W 003°18'513.1
2018-May-12 18:59N 58°55' W 003°26'918.7
2018-May-12 18:29N 58°46' W 003°29'3 1.9
2018-May-12 16:47N 58°43' W 003°30'619.5
2018-May-12 16:30N 58°49' W 003°29'917.2
2018-May-12 15:57N 58°57' W 003°19'1 0.3
2018-May-12 12:17N 58°58' W 003°18'914.8
2018-May-12 11:39N 58°50' W 003°29'7 2.6
2018-May-12 08:57N 58°43' W 003°30'1518.0
2018-May-12 08:07N 58°57' W 003°18'1 0.1
2018-May-11 19:12N 58°58' W 003°18'19 8.4
2018-May-11 16:54N 58°39' W 003°31'1018.8
2018-May-11 16:22N 58°49' W 003°29'916.5
2018-May-11 15:49N 58°57' W 003°19'1 0.1
2018-May-11 09:12N 58°58' W 003°18'914.5
2018-May-11 08:33N 58°50' W 003°29'9 4.8
2018-May-11 06:40N 58°41' W 003°31'318.6
2018-May-11 06:30N 58°44' W 003°30'1019.3
2018-May-11 05:59N 58°54' W 003°27'6 0.5
2018-May-10 19:26N 58°58' W 003°18'  

Dump ship's entire track history